Voltar ao catálogo

DELTA 1 DEB

AtivoSSO
NORAD 21360·DEBRIS·🇺🇸 United States

Lançado Jun 12, 1975 de Vandenberg Space Force Base

Loading…

Próximas Passagens (próximas 24 horas)

TLE

AtualizadoSource: Space-Track

Época: Sep 14, 2026, 09:46 UTC

1 21360U 75052CE  26257.40760028 -.00000012  00000-0  63804-4 0  9999
2 21360  99.7879 317.6122 0077067 207.1003 164.1437 13.29445996713554

Acompanhe DELTA 1 DEB em tempo real com AllMySat

Download on the App Store